Flag for Australia Weather past 2 weeks in Toowoomba, Queensland, Australia

Now
31 °F

Chilly.


Feels Like: 26 °F
Forecast: 40 / 64 °F
Wind: 5 mph from East

Location: Oakey Aerodrome

Current Time: Jul 30, 2014 at 9:04:58 AM

Latest Report: Jul 30, 2014 at 7:00 AM


Visibility: N/A

Pressure: 30.24 "Hg

Humidity: 83%

Dew point: 27 °F

Location of ToowoombaLocation

Historic Weather in Toowoomba — Graph

°F

Toowoomba temperature yesterday

Maximum temperature yesterday: 71 °F (at 3:00 PM)
Minimum temperature yesterday: 27 °F (at 6:00 AM)
Average temperature yesterday: 47 °F

Past Weeks' High & Low Weather Summary

 TemperatureHumidityPressure
High73 °F (Jul 25, 3:00 PM)100% (Jul 17, 4:00 AM)30.35 "Hg (Jul 17, 4:00 AM)
Low27 °F (Jul 29, 6:00 AM)23% (Jul 29, 3:00 PM)29.99 "Hg (Jul 18, 4:00 AM)
Average51 °F70%30.18 "Hg
* Reported Jul 15 7:00 AM — Jul 30 7:00 AM, Toowoomba, Weather by CustomWeather, © 2014

Note: Actual official high and low records may vary slightly from our data, if they occured in-between our weather recording intervals... More about our weather records

Advertising

Toowoomba weather history for previous 24 hours

 ConditionsComfort  
Time TempWeatherWind HumidityBarometerVisibility
7:00 AM
Jul 30
31 °FChilly.5 mph83%30.24 "HgN/A
6:00 AM30 °FChilly.6 mph78%30.22 "HgN/A
4:00 AM32 °FChilly.5 mph74%30.20 "HgN/A
3:00 AM32 °FChilly.6 mph75%30.20 "HgN/A
1:00 AM34 °FChilly.5 mph70%30.22 "HgN/A
12:00 AM35 °FChilly.6 mph74%30.22 "HgN/A
10:00 PM
Jul 29
40 °FChilly.5 mph56%30.21 "HgN/A
9:00 PM41 °FQuite cool.7 mph57%30.19 "HgN/A
7:00 PM51 °FCool.No wind40%30.17 "HgN/A
6:00 PM57 °FRefreshingly cool.3 mph36%30.16 "HgN/A
4:00 PM70 °FMild.15 mph23%30.14 "HgN/A
3:00 PM71 °FMild.17 mph23%30.14 "HgN/A
1:00 PM68 °FMild.14 mph26%30.18 "HgN/A
12:00 PM67 °FMild.14 mph28%30.21 "HgN/A
10:00 AM60 °FRefreshingly cool.7 mph43%30.25 "HgN/A
9:00 AM50 °FCool.5 mph55%30.25 "HgN/A
Weather by CustomWeather, © 2014

See weather overviewHow to use our weather pages